{"data":{"norad_id":63120,"intl_designator":"2025-039S","name":"STARLINK-32942","alt_names":[],"object_type":"PAYLOAD","status":"ACTIVE","operator":null,"country":"US","launch_date":"2025-02-27","launch_site_code":"AFETR","launch_vehicle":null,"mission":null,"orbit_class":"UNKNOWN","rcs_meters":null,"size_class":null,"mass_kg":null,"dimensions":null,"purposes":["comms"],"wikipedia_slug":null,"has_3d_model":false,"image_url":null,"decayed_at":null,"tle_current":{"epoch":"2026-05-24T20:07:16.828608Z","epoch_age_seconds":85849,"freshness":"FRESH","line1":"1 63120U 25039S   26144.83838922  .00015285  00000+0  56366-3 0  9990","line2":"2 63120  43.0016 302.6543 0001776 271.6801  88.3847 15.27588808 69710","mean_motion":15.27588808,"eccentricity":0.0001776,"inclination_deg":43.0016,"raan_deg":302.6543,"arg_perigee_deg":271.6801,"mean_anomaly_deg":88.3847,"bstar":0.00056366,"rev_number":6971,"period_min":94.266205176334,"perigee_km":481.80417987912,"apogee_km":484.24126381232,"semimajor_km":6861.1597218457,"source":"CELESTRAK","updated_at":"2026-05-25T13:38:19.912302Z"}}}